Content
SEND FEEDBACK

Daily
Averages
Monthly
Summary
United States of America

AGAT, GUAM


Home > North America > United States > Guam
Elevation: 364 feet     Latitude: 13 33N     Longitude: 144 50E

WEATHER
 
SELECT A DAY
Number of Records: 209,133;   Date Range: 1/1/95 - 8/28/14
 
SHARE

PRINT THIS DATA

[ ← Previous Day ]
WEATHER ALMANAC - FEBRUARY 11, 2014
[ Next Day → ]
[ °C ]   °F
Weather ElementAverageHighLow
Temperature79.5 °F84.9 °F (1:54 pm)73.9 °F (4:54 am)
Dewpoint70 °F72 °F (9:54 am)68 °F (1:54 am)
Humidity73.3 %85 % (4:54 am)59 % (1:54 pm)
Barometer29.77 in29.82 in (9:54 am)29.72 in (3:54 pm)
Wind Speed5.2 mph11.5 mph (11:54 am)
Wind Gust19.6 mph (11:54 am)
Weather ElementAverage
Visibility10 mi
Wind DirectionENE (79.1 °)

Weather ElementTotal
Precipitation---
Cooling Degree Days14.4 (Base 65)
Growing Degree Days29.4 (Base 50)
Averaged from 23 records on February 11, 2014
WEATHER CONDITIONS BREAKOUT
WIND DIRECTION BREAKOUT
WEATHER BY HOUR - FEBRUARY 11, 2014
[ °C ]   °F
Local TimeTemperatureDewpointHumidityBarometerVisibilityWind DirectionWind SpeedGust SpeedPrecipitationEventsConditions
1:54 AM77.0 °F68.0 °F74 %29.76 in10.0 miEast (80°)4.6 mphScattered Clouds
2:54 AM75.9 °F69.1 °F79 %29.75 in10.0 miNE (50°)5.8 mphScattered Clouds
3:54 AM75.0 °F69.1 °F82 %29.75 in10.0 miEast (90°)3.5 mphClear
4:54 AM73.9 °F69.1 °F85 %29.75 in10.0 miENE (60°)3.5 mphMostly Cloudy
5:54 AM75.9 °F69.1 °F79 %29.76 in10.0 miEast (80°)4.6 mphClear
6:54 AM77.0 °F69.1 °F76 %29.79 in10.0 miENE (70°)4.6 mphMostly Cloudy
7:54 AM78.1 °F71.1 °F79 %29.80 in10.0 miCalmClear
8:54 AM82.0 °F71.1 °F69 %29.81 in10.0 miENE (60°)4.6 mphScattered Clouds
9:54 AM81.0 °F72.0 °F74 %29.82 in10.0 miEast (100°)5.8 mphOvercast
10:54 AM82.0 °F71.1 °F69 %29.81 in10.0 miESE (110°)9.2 mphScattered Clouds
11:54 AM84.0 °F70.0 °F63 %29.78 in10.0 miEast (90°)11.5 mph19.6 mphClear
12:54 PM84.0 °F70.0 °F63 %29.76 in10.0 miESE (110°)6.9 mphPartly Cloudy
1:54 PM84.9 °F69.1 °F59 %29.74 in10.0 miEast (100°)10.4 mphPartly Cloudy
2:54 PM84.0 °F69.1 °F61 %29.73 in10.0 miSE (130°)6.9 mphPartly Cloudy
3:54 PM84.0 °F69.1 °F61 %29.72 in10.0 miSE (130°)6.9 mphPartly Cloudy
4:54 PM82.9 °F70.0 °F65 %29.74 in10.0 miESE (110°)9.2 mphPartly Cloudy
5:54 PM81.0 °F70.0 °F69 %29.75 in10.0 miESE (110°)6.9 mphClear
6:54 PM80.1 °F71.1 °F74 %29.77 in10.0 miESE (110°)3.5 mphClear
7:54 PM78.1 °F71.1 °F79 %29.79 in10.0 miEast (100°)3.5 mphClear
8:54 PM78.1 °F71.1 °F79 %29.80 in10.0 miESE (110°)4.6 mphClear
9:54 PM75.9 °F70.0 °F82 %29.82 in10.0 miNNE (20°)3.5 mphClear
10:54 PM77.0 °F71.1 °F82 %29.82 in10.0 miCalmClear
11:54 PM75.9 °F70.0 °F82 %29.80 in10.0 miCalmClear
Hourly data recorded from PGUM, located miles away from Agat, Guam







STORIES FROM OUR PARTNERS